Location: Unspecified
(48.2082°N, 0.0000°E)
Time: 18:31:44
(UTC+00:00)

Altair - Pass Details

Date: 27 June 2019
Orbit: 1501 x 1683 km, 47.2° (Epoch: 24 August)

Event Time Altitude Azimuth Distance (km) Brightness Sun altitude
Rises 20:27:33 0° 259° (W) 4,705 10.6 -3.8°
Reaches altitude 10° 20:30:33 10° 259° (W) 3,744 10.1 -4.1°
Maximum altitude 20:40:06 84° 173° (S) 1,615 7.6 -5.3°
Drops below altitude 10° 20:50:04 10° 87° (E) 3,891 9.2 -6.5°
Sets 20:53:15 0° 87° (E) 4,897 9.8 -6.8°
